sat.trackr.live / text

‹ back to catalog

STARLINK-32412

NORAD 61680 · 2024-193V

PAYLOAD ACTIVE UNKNOWN

§ Identity

Operator
Country
US
Launch date
2024-10-26
Launch site
AFETR
Launch vehicle
Mass (kg)
RCS (m²)

Purposes: comms

External: N2YO · Heavens-Above · Gunter

§ Orbital elements

Epoch: 2026-05-25T03:46:21.075168Z

Period
94.01 min
Inclination
53.1620°
Eccentricity
0.0001286
Mean motion
15.31709257 rev/d
Perigee alt
469.8 km
Apogee alt
471.6 km
Semi-major
6,848.8 km
B*
3.9516e-5
RAAN
95.8558°
Arg perigee
93.7395°
Mean anomaly
266.3753°
Rev number
8,823

§ Raw data

STARLINK-324121 61680U 24193V   26145.15718837  .00000862  00000+0  39516-4 0  99912 61680  53.1620  95.8558 0001286  93.7395 266.3753 15.31709257 88236

JSON: /api/v1/satellites/61680 · /tle

For live sub-satellite position, see the globe view (requires WebGL).

§ Visibility from observer

Set your observer location to see the next 7 days of passes ≥ 10°. The values pass through the URL so the page stays shareable.

No JS? Fill the form by hand. The geolocation button needs JavaScript.